Search your local weather  

 

Hazardous Weather Conditions

No active alerts for PHILADELPHIA, PENNSYLVANIA

Current Conditions: PHILADELPHIA, PENNSYLVANIA

Overcast


76.0 F

Last Updated on Aug 10 2022, 12:35 am EDT
Humidity: 97%
Wind Speed: N 0.0 mph
Barometer 30.01 in
Dewpoint: 75.2 F
Visibility: 10.00 mi
Precip: --
Heat Index: NA
Wind Chill: NA
Current conditions at:

Philadelphia - Wings Field Airport, PA (KLOM)

Lat: 40.13758 Lon: -75.2684

Local Radar Image active severe weather and emergency alerts image image weather storm and storm spotter reports image weather observation monitoring service image
Local
Radar
Active
Alerts
Storm Reports Weather
Monitoring

5 Day Forecast for PHILADELPHIA, PENNSYLVANIA (19102)

Wednesday

T-storms Likely

High 89 °F
Wednesday
Night
T-storms Likely

Low 72 °F
Thursday

Rain Showers Likely
High 87 °F
Thursday
Night
Partly Cloudy

Low 68 °F
Friday

Partly Sunny

High 82 °F
Friday
Night
Mostly Sunny

Low 64 °F
Saturday

Sunny

High 83 °F
Saturday
Night
Mostly Clear

Low 63 °F
Sunday

Partly Sunny

High 85 °F

Sign-up For Email & Text Message Weather Alert Notification Services



Advertise Here

Observation History for PHILADELPHIA, PENNSYLVANIA


Time Wind
(mph)
Vis
(mi)
Weather Precip (in) Temperature (F) Relative
Humidity
Wind
Chill
(F)
Heat
Index
(F)
Pressure
Air Dwpt altimeter
(in)
sea level
(mb)
12:35 am EDT N 0.0 10.00 Overcast -- 76.0 75.2 97% NA NA 30.01 M
12:15 am EDT W 4.6 10.00 Overcast -- 76.0 75.2 97% NA NA 30.01 M
11:55 pm EDT N 0.0 10.00 Light Rain -- 76.0 74.8 96% NA NA 30.00 M
10:15 pm EDT SW 5.8 10.00 Mostly Cloudy -- 78.0 75.0 90% NA NA 30.00 M
9:55 pm EDT SW 5.8 10.00 Mostly Cloudy 00.02 78.0 75.6 91% NA NA 30.01 M
9:35 pm EDT SW 5.8 10.00 Mostly Cloudy 00.02 79.0 75.0 89% NA NA 30.01 M
8:15 pm EDT N 0.0 10.00 Fair -- 78.0 76.1 95% NA NA 29.96 M
7:35 pm EDT N 0.0 10.00 Fair -- 80.0 75.0 86% NA 85 29.95 M
7:15 pm EDT N 0.0 10.00 Fair -- 80.0 75.7 87% NA 85 29.94 M
6:55 pm EDT N 0.0 10.00 Partly Cloudy -- 80.0 75.9 88% NA 85 29.94 M
6:35 pm EDT W 4.6 10.00 Fair -- 79.0 75.7 89% NA NA 29.95 M
6:15 pm EDT N 0.0 10.00 Partly Cloudy -- 79.0 75.9 90% NA NA 29.95 M
5:55 pm EDT W 4.6 10.00 Light Rain 00.22 78.0 74.3 87% NA NA 29.96 M
5:35 pm EDT W 11.5 G 18.4 10.00 Overcast -- 86.0 72.7 64% NA 93 29.96 M
5:15 pm EDT NW 13.8 G 17.3 10.00 Mostly Cloudy -- 91.0 72.1 54% NA 99 29.93 M
4:55 pm EDT W 10.4 10.00 Mostly Cloudy -- 94.0 72.9 51% NA 104 29.92 M
4:35 pm EDT NW 5.8 10.00 Partly Cloudy -- 93.0 72.9 52% NA 102 29.92 M
3:55 pm EDT W 4.6 10.00 Mostly Cloudy -- 94.0 73.4 52% NA 104 29.93 M
3:35 pm EDT W 11.5 G 16.1 10.00 Mostly Cloudy -- 94.0 73.6 52% NA 104 29.93 M
2:55 pm EDT W 9.2 10.00 Partly Cloudy -- 93.0 72.9 52% NA 102 29.94 M
1:55 pm EDT W 8.1 10.00 Partly Cloudy -- 93.0 74.1 55% NA 104 29.95 M
1:35 pm EDT W 6.9 10.00 Partly Cloudy -- 93.0 74.1 55% NA 104 29.95 M
1:15 pm EDT W 8.1 G 19.6 10.00 Partly Cloudy -- 91.0 73.8 57% NA 100 29.95 M
12:55 pm EDT W 10.4 10.00 Mostly Cloudy -- 91.0 73.6 57% NA 100 29.96 M

Regional Weather Observation

Philadelphia, Northeast Philadelphia Airport, PA (KPNE)

Overcast
83.0 F

Pottstown, Pottstown Limerick Airport, PA (KPTW)

A Few Clouds
76.0 F

Doylestown, Doylestown Airport, PA (KDYL)

A Few Clouds
80.0 F

Pennridge Airport, PA (KCKZ)

Mostly Cloudy
75.0 F

Quakertown Airport, PA (KUKT)

Fair
77.0 F

Brandywine Regional Airport, PA (KOQN)

Partly Cloudy
73.0 F

Advertise Here


Advertise Here